Washington, PA

12:11 PM EST on December 12, 2019 (GMT -0500)
Washington County

Weather History for KAFJ - October, 2019

Change the Weather History Date:

Thursday, October 24, 2019

  Actual Average Record
Temperature  
Mean Temperature 52 °F -  
Max Temperature 68 °F 57 °F 77 °F (2012)
Min Temperature 37 °F 37 °F 26 °F (1997)
Degree Days  
Heating Degree Days 12    
Growing Degree Days 2 (Base 50)    
Moisture  
Dew Point 36 °F    
Average Humidity 62    
Maximum Humidity 93    
Minimum Humidity 28    
Precipitation  
Precipitation 0.00 in - - ()
Sea Level Pressure  
Sea Level Pressure 30.27 in    
Wind  
Wind Speed 3 mph ()    
Max Wind Speed 13 mph    
Max Gust Speed 16 mph    
Visibility 10.0 miles    
Events      
Averages and records for this station are not official NWS values.
T = Trace of Precipitation, MM = Missing Value Source: Averaged Metar Reports

Daily Weather History Graph

Daily Weather History Graph

Search for Another Location

Airport or City:

Astronomy

Oct. 24, 2019 Rise Set
Actual Time 7:41 AM EDT 6:28 PM EDT
Civil Twilight 7:13 AM EDT 6:56 PM EDT
Nautical Twilight 6:41 AM EDT 7:28 PM EDT
Astronomical Twilight 6:10 AM EDT 7:59 PM EDT
Moon 3:08 AM EDT (10/24) 4:55 PM EDT (10/24)
Length of Visible Light 11h 43m
Length of Day
10h 47m
Waning Crescent, 17% of the Moon is Illuminated
Oct 24
Waning Crescent
Oct 27
New
Nov 4
First Quarter
Nov 12
Full
Nov 19
Last Quarter

Hourly Weather History & Observations

Time (EDT) Temp. Windchill Dew Point Humidity Pressure Visibility Wind Dir Wind Speed Gust Speed Precip Events Conditions
12:56 AM 39.9 °F 37.8 °F 34.0 °F 79% 30.24 in 10.0 mi SW 3.5 mph - N/A   Clear
1:56 AM 39.0 °F 36.8 °F 34.0 °F 82% 30.24 in 10.0 mi SSW 3.5 mph - N/A   Clear
2:56 AM 39.0 °F - 34.0 °F 82% 30.24 in 10.0 mi Calm Calm - N/A   Clear
3:56 AM 39.9 °F 37.8 °F 33.1 °F 77% 30.25 in 10.0 mi SSW 3.5 mph - N/A   Clear
4:56 AM 37.0 °F - 33.1 °F 86% 30.27 in 10.0 mi Calm Calm - N/A   Clear
5:56 AM 37.9 °F 35.5 °F 33.1 °F 83% 30.28 in 10.0 mi SSW 3.5 mph - N/A   Clear
6:56 AM 39.9 °F 36.7 °F 33.1 °F 77% 30.29 in 10.0 mi SSW 4.6 mph - N/A   Clear
7:56 AM 39.0 °F 35.7 °F 33.1 °F 79% 30.30 in 10.0 mi SSW 4.6 mph - N/A   Clear
8:56 AM 45.0 °F 43.5 °F 34.0 °F 65% 30.31 in 10.0 mi SSW 3.5 mph - N/A   Clear
9:56 AM 51.1 °F - 36.0 °F 56% 30.31 in 10.0 mi South 4.6 mph - N/A   Clear
10:56 AM 59.0 °F - 37.0 °F 44% 30.30 in 10.0 mi South 8.1 mph - N/A   Clear
11:56 AM 63.0 °F - 35.1 °F 35% 30.30 in 10.0 mi WSW 6.9 mph - N/A   Clear
12:56 PM 64.9 °F - 36.0 °F 34% 30.28 in 10.0 mi West 8.1 mph - N/A   Clear
1:56 PM 66.9 °F - 35.1 °F 31% 30.26 in 10.0 mi West 12.7 mph 16.1 mph N/A   Clear
2:56 PM 68.0 °F - 37.0 °F 32% 30.25 in 10.0 mi West 10.4 mph - N/A   Clear
3:56 PM 68.0 °F - 35.1 °F 30% 30.25 in 10.0 mi WSW 6.9 mph - N/A   Clear
4:56 PM 68.0 °F - 34.0 °F 28% 30.25 in 10.0 mi SW 6.9 mph - N/A   Clear
5:56 PM 66.0 °F - 34.0 °F 30% 30.25 in 10.0 mi WSW 4.6 mph - N/A   Clear
6:56 PM 55.9 °F - 41.0 °F 57% 30.26 in 10.0 mi Calm Calm - N/A   Clear
7:56 PM 51.1 °F - 42.1 °F 71% 30.29 in 10.0 mi Calm Calm - N/A   Clear
8:56 PM 46.9 °F - 41.0 °F 80% 30.29 in 10.0 mi Calm Calm - N/A   Clear
9:56 PM 46.0 °F - 39.9 °F 79% 30.30 in 10.0 mi Calm Calm - N/A   Clear
10:56 PM 44.1 °F - 39.9 °F 85% 30.29 in 10.0 mi Calm Calm - N/A   Clear
11:56 PM 41.0 °F 39.0 °F 39.0 °F 93% 30.30 in 10.0 mi North 3.5 mph - N/A   Clear